{"data":{"norad_id":61852,"intl_designator":"2024-202H","name":"STARLINK-32433","alt_names":[],"object_type":"PAYLOAD","status":"ACTIVE","operator":null,"country":"US","launch_date":"2024-11-07","launch_site_code":"AFETR","launch_vehicle":null,"mission":null,"orbit_class":"UNKNOWN","rcs_meters":null,"size_class":null,"mass_kg":null,"dimensions":null,"purposes":["comms"],"wikipedia_slug":null,"has_3d_model":false,"image_url":null,"decayed_at":null,"tle_current":{"epoch":"2026-05-25T01:50:42.438048Z","epoch_age_seconds":65069,"freshness":"FRESH","line1":"1 61852U 24202H   26145.07688007  .00000827  00000+0  39567-4 0  9996","line2":"2 61852  43.0009 166.2861 0001279 274.7690  85.3015 15.27576424 87026","mean_motion":15.27576424,"eccentricity":0.0001279,"inclination_deg":43.0009,"raan_deg":166.2861,"arg_perigee_deg":274.769,"mean_anomaly_deg":85.3015,"bstar":3.9567e-5,"rev_number":8702,"period_min":94.266969388629,"perigee_km":482.18225681978,"apogee_km":483.93735096222,"semimajor_km":6861.196803891,"source":"CELESTRAK","updated_at":"2026-05-25T13:38:19.450912Z"}}}